Location: Beccas
(43.4309°N, 0.1528°E)
Time: 11:49:24
(UTC+00:00)

H-2A R/B - Pass Details

Date: 15 October 2021
Orbit: 528 x 650 km, 98.3° (Epoch: 03 December)

Event Time Altitude Azimuth Distance (km) Brightness Sun altitude
Rises 18:41:57 0° 169° (S) 2,943 5.9 -16.4°
Reaches altitude 10° 18:44:11 10° 171° (S) 2,028 5.1 -16.8°
Maximum altitude 18:48:36 74° 257° (WSW) 659 2.8 -17.6°
Drops below altitude 10° 18:52:56 10° 343° (NNW) 1,985 5.4 -18.3°
Sets 18:55:06 0° 345° (NNW) 2,875 6.3 -18.7°
